User: anonymous
Location: Unspecified
(0.0000°N, 0.0000°E)
Time: 08:45:13
(UTC+02:00)
Language:

GPS 2-12 Rocket1 - Orbit

View from above orbital plane
View from above orbital plane
View from above satellite
View from above satellite

Ground track
Ground track

The orbit data is extracted from the following two-line orbital elements,

1 21891U 92009B   14244.48159949  .00001117  00000-0  88804-4 0  2798
2 21891 019.9972 325.3581 0049291 105.5299 255.0568 14.80979200214764
Epoch (UTC): 01 September 2014 11:33:30
Eccentricity: 0.0049291
inclination: 19.9972°
perigee height: 592 km
apogee height: 661 km
right ascension of ascending node: 325.3581°
argument of perigee: 105.5299°
revolutions per day: 14.80979200
mean anomaly at epoch: 255.0568°
orbit number at epoch: 21476

The dashed part of the orbit path shows where the satellite is in the earth's shadow,  

DLR